Regional Weather Roundup
Issued by NWS

Home | Current Version | Previous Version | Text Only | Print | Product List | Glossary On
Versions: 1 2 3 4 5 6 7 8 9 10 11 12 13 14 15 16 17 18 19 20 21 22 23 24 25 26 27 28 29 30 31 32 33 34 35 36 37 38 39 40 41 42 43 44 45 46 47 48 49 50
000
ASUS44 KBMX 202310
RWRAL

ALABAMA REGIONAL WEATHER ROUNDUP
NATIONAL WEATHER SERVICE BIRMINGHAM AL
500 PM CST SAT DEC 20 2014

NOTE: "FAIR" INDICATES FEW OR NO CLOUDS BELOW 12,000 FEET
WITH NO SIGNIFICANT WEATHER AND/OR OBSTRUCTIONS TO VISIBILITY.

THE REMARK "TC" DENOTES TEMPERATURE IN DEGREES CELSIUS.

ALZ001>011-014-016>018-020-210000-
NORTH ALABAMA

CITY           SKY/WX    TMP DP  RH WIND       PRES   REMARKS
MUSCLE SHOALS  CLEAR     49  30  48 CALM      30.21S
HUNTSVILLE     CLEAR     47  33  58 N7        30.19S
DECATUR        CLEAR     46  32  58 NE5       30.20S
HALEYVILLE     FAIR      45  32  60 CALM      30.21S
GADSDEN        CLOUDY    48  36  61 CALM      30.19R
$$

ALZ012-013-022-023-030>036-040>044-210000-
WEST CENTRAL ALABAMA

CITY           SKY/WX    TMP DP  RH WIND       PRES   REMARKS
TUSCALOOSA     CLEAR     49  37  63 NE3       30.19R
$$

ALZ015-024>027-033>036-040>044-210000-
CENTRAL ALABAMA

CITY           SKY/WX    TMP DP  RH WIND       PRES   REMARKS
BIRMINGHAM     MOCLDY    48  38  68 N5        30.20R
MONTGOMERY     CLOUDY    53  46  77 N6        30.16S
SHELBY CO ARPT CLOUDY    50  41  71 CALM      30.18R
MAXWELL AFB    CLOUDY    53  47  82 N5        30.16R
GREENVILLE     CLOUDY    51  47  86 NE5       30.14R
$$

ALZ019-021-028-029-037-038-045>048-210000-
EAST CENTRAL ALABAMA

CITY           SKY/WX    TMP DP  RH WIND       PRES   REMARKS
ANNISTON       CLOUDY    49  41  74 N3        30.18S
ALEXANDER CITY CLOUDY    54  46  72 N6        30.16R
AUBURN         CLOUDY    48  43  81 NE6       30.18R
$$

ALZ051>064-210000-
SOUTHWEST ALABAMA

CITY           SKY/WX    TMP DP  RH WIND       PRES   REMARKS
MOBILE         CLOUDY    49  47  93 N10       30.12S
BROOKLEY FIELD CLOUDY    52  48  86 N14       30.13R
EVERGREEN      CLOUDY    51  47  86 VRB7      30.14S
$$

ALZ049-050-065>069-210000-
SOUTHEAST ALABAMA

CITY           SKY/WX    TMP DP  RH WIND       PRES   REMARKS
DOTHAN         CLOUDY    54  50  87 NE7       30.15S
OZARK          CLOUDY    55  49  81 NE8       30.12R
TROY           CLOUDY    51  48  89 NE8       30.15R FOG
EUFAULA        CLOUDY    52  50  93 CALM      30.14R FOG
$$



USA.gov is the U.S. government's official web portal to all federal, state and local government web resources and services.